Tracking 28125 objects as of 2-Oct-2023
HD Live streaming from Space Station
objects crossing your sky now

THORAD DELTA 1 DEB

Track THORAD DELTA 1 DEB now!
10-day predictions


NORAD ID: 8175
Int'l Code: 1974-089AR
Perigee: 1,279.1 km
Apogee: 1,578.7 km
Inclination: 102.4 °
Period: 114.3 minutes
Semi major axis: 7799 km
RCS: 0.0392 m2 (small)
Launch date: November 15, 1974
Source: United States (US)
Launch site: AIR FORCE WESTERN TEST RANGE (AFWTR)

Note: This is SATELLITE DEBRIS
Your satellite tracking list
Your tracking list is empty




NASA's NSSDC Master Catalog

Two Line Element Set (TLE):
1 08175U 74089AR  23274.53500611  .00002564  00000-0  13968-1 0  9993
2 08175 102.4404 124.0254 0192025  97.2649 293.0031 12.60284559204446
Source of the keplerian elements: AFSPC